#timestamp,LO_Frequency,Hit,StdDev 
1675738815.6,286046998.7,N
1675738835.4,286047000.9,N
1675738855.3,286047000.8,N
1675738875.1,286047002.3,N
1675738895.8,286047001.5,N
1675738915.7,286047002.0,N
1675738935.5,286047002.8,N
1675738955.4,286046998.1,N
1675738975.2,286046999.7,N
1675738995.0,286046999.7,N
1675738995.9,286046999.7,N
1675739015.8,286047002.3,N
1675739035.6,286047000.1,N
1675739055.5,286046999.5,N
1675739075.3,286046995.4,N
1675739095.1,286046993.5,Y
1675739115.9,286046995.7,P
1675739135.7,286046994.9,N
1675739155.6,286046997.8,N
1675739175.4,286046997.3,N
1675739195.2,286046997.9,N
1675739215.1,286046997.8,N
1675739216.0,286046997.8,N
1675739235.8,286046997.2,N
1675739255.6,286046995.4,Y
1675739275.5,286046997.2,P
1675739295.3,286046999.3,P
1675739315.2,286046999.5,N
1675739335.9,286047000.8,N
1675739355.7,286046998.1,N
1675739375.6,286047000.5,N
1675739395.4,286047001.7,N
1675739415.2,286047001.4,N
1675739435.1,286047003.9,N
1675739436.0,286047003.9,N
1675739455.8,286047003.5,N
1675739475.7,286047004.7,N
1675739495.5,286047003.2,N
1675739515.3,286047003.9,N
1675739535.2,286047004.1,N
1675739555.0,286047003.9,N
1675739555.9,286047003.9,N
1675739575.8,286047002.9,N
1675739595.6,286047005.8,N
1675739615.4,286047000.5,N
1675739635.3,286047000.4,N
1675739655.1,286047002.4,N
1675739656.0,286047002.4,N
1675739675.8,286047000.0,N
1675739695.7,286047002.2,N
1675739715.5,286047003.7,N
1675739735.3,286047004.0,N
1675739755.2,286047002.0,N
1675739775.0,286047001.6,N
1675739775.9,286047001.6,N
1675739795.8,286047004.2,N
1675739815.6,286047003.6,N
1675739835.4,286047002.4,N
1675739855.3,286047002.5,N
1675739875.1,286047002.0,N
1675739895.9,286047001.3,N
1675739915.7,286047004.0,N
1675739935.5,286047003.3,N
1675739955.4,286047001.6,N
1675739975.2,286047003.1,N
1675739995.1,286047005.3,Y
1675739996.0,286047005.3,P
1675740015.8,286047001.5,N
1675740035.6,286046999.9,N
1675740055.5,286047001.0,N
1675740075.3,286047000.8,N
1675740095.1,286047000.4,N
1675740115.9,286047000.5,N
1675740135.7,286047000.8,N
1675740155.6,286046996.7,N
1675740175.4,286046995.2,N
1675740195.2,286046995.4,N
1675740215.1,286046997.6,N
1675740216.0,286046997.6,N
1675740235.8,286046996.5,N
1675740255.7,286046998.3,N
1675740275.5,286046998.1,N
1675740295.3,286046998.8,N
1675740315.2,286046999.1,N
1675740335.0,286046996.5,N
1675740335.9,286046996.5,N
1675740355.7,286046999.0,N
1675740375.6,286046999.1,N
1675740395.4,286046998.5,N
1675740415.3,286046999.3,N
1675740435.1,286046996.7,N
1675740455.8,286046997.7,N
1675740475.7,286046999.1,N
1675740495.5,286046999.0,N
1675740515.4,286046998.4,N
1675740535.2,286046996.9,N
1675740555.0,286046998.2,N
1675740555.9,286046998.2,N
1675740575.8,286047001.0,N
1675740595.6,286046999.2,N
1675740615.4,286046999.1,N
1675740635.3,286046995.4,Y
1675740655.1,286047001.2,P
1675740675.9,286047001.0,N
1675740695.7,286046999.8,N
1675740715.5,286046999.7,N
1675740735.4,286047000.3,N
1675740755.2,286047000.5,N
1675740775.1,286047000.8,N
1675740776.0,286047000.8,N
1675740795.8,286047002.7,Y
1675740815.6,286046998.2,P
1675740835.5,286047000.1,N
1675740855.3,286046998.3,N
1675740875.2,286046999.2,N
1675740895.9,286046998.4,N
1675740915.7,286046998.2,N
1675740935.6,286047001.1,N
1675740955.4,286047000.8,N
1675740975.2,286047000.5,N
1675740995.1,286047000.5,N
1675740996.0,286047000.5,N
1675741015.8,286046999.3,N
1675741035.7,286046999.0,N
1675741055.5,286046998.5,N
1675741075.3,286047000.6,N
1675741095.2,286047000.4,N
1675741115.0,286046999.8,N
1675741115.9,286046999.8,N
1675741135.8,286047001.9,N
1675741155.6,286047003.8,Y
1675741175.4,286047001.7,P
1675741195.3,286047003.9,P
1675741215.1,286047001.7,N
1675741235.8,286047002.6,N
1675741255.7,286047001.6,N
1675741275.5,286047002.1,N
1675741295.4,286047001.6,N
1675741315.2,286047002.6,N
1675741335.0,286047004.0,Y
1675741335.9,286047004.0,P
1675741355.8,286047002.7,N
1675741375.6,286046999.8,N
1675741395.5,286047000.3,N
1675741415.3,286046999.9,N
1675741435.1,286047002.8,N
1675741455.9,286047000.2,N
1675741475.7,286046998.7,N
1675741495.5,286047001.2,N
1675741515.4,286046998.8,N
1675741535.2,286046998.1,N
1675741555.0,286047000.9,N
1675741555.9,286047000.9,N
1675741575.8,286047000.4,N
1675741595.6,286047002.8,N
1675741615.5,286047001.2,N
1675741635.3,286047002.4,N
1675741655.1,286047002.1,N
1675741675.9,286047001.8,N
1675741695.7,286047002.1,N
1675741715.5,286047002.2,N
1675741735.4,286047002.4,N
1675741755.2,286047000.2,N
1675741775.1,286047001.6,N
1675741776.0,286047001.6,N
1675741795.8,286047001.7,N
1675741815.6,286047002.5,N
1675741835.5,286047001.5,N
1675741855.3,286047002.2,N
1675741875.1,286047002.5,N
1675741895.9,286047002.5,N
1675741915.7,286047001.0,N
1675741935.6,286046998.1,N
1675741955.4,286047000.5,N
1675741975.2,286047002.7,N
1675741995.1,286047002.2,N
1675741996.0,286047002.2,N
1675742015.8,286047000.0,N
1675742035.7,286046998.2,N
1675742055.5,286046998.5,N
1675742075.3,286047002.1,N
1675742095.2,286047002.0,N
1675742145.9,286046998.5,E
1675742155.9,286047001.2,N
1675742175.7,286046998.4,P
1675742195.5,286047001.2,N
1675742215.4,286047000.2,N
1675742235.2,286047002.4,N
1675742255.1,286047001.7,N
1675742256.0,286047001.7,N
1675742275.8,286047003.4,N
1675742295.6,286047005.9,Y
1675742315.5,286047003.7,P
1675742335.3,286047004.1,P
1675742355.2,286047004.4,P
1675742375.0,286047004.1,Y
1675742375.9,286047004.1,P
1675742395.7,286046999.2,N
